Regional Weather Roundup
Issued by NWS

Home | Current Version | Previous Version | Text Only | Print | Product List | Glossary Off
Versions: 1 2 3 4 5 6 7 8 9 10 11 12 13 14 15 16 17 18 19 20 21 22 23 24 25 26 27 28 29 30 31 32 33 34 35 36 37 38 39 40 41 42 43 44 45 46 47 48 49 50

000
ASUS43 KFSD 281710
RWRSD

WEATHER ROUNDUP FOR SOUTH DAKOTA
NATIONAL WEATHER SERVICE SIOUX FALLS SD
1200 PM CDT THU JUL 28 2016

NOTE: "FAIR" INDICATES FEW OR NO CLOUDS BELOW 12,000 FEET WITH NO
SIGNIFICANT WEATHER AND/OR OBSTRUCTIONS TO VISIBILITY.


SDZ001>005-009-010-012>017-281800-
NORTHWEST AND NORTH CENTRAL SOUTH DAKOTA

CITY           SKY/WX    TMP DP  RH WIND       PRES   REMARKS
BUFFALO          N/A     66  62  87 S5        30.10R
FAITH            N/A     71  57  61 SE12      30.12S
MOBRIDGE       CLOUDY    71  53  52 NE8       30.11S
$$

SDZ012>016-024>037-041>051-057-063-072>074-281800-
SOUTHWEST AND SOUTH CENTRAL SOUTH DAKOTA

CITY           SKY/WX    TMP DP  RH WIND       PRES   REMARKS
RAPID CTY ARPT CLOUDY    67  60  78 N5        30.14F
PIERRE         SUNNY     76  55  48 SE7       30.09F
CUSTER         LGT RAIN  55  51  86 NW7       30.25F
ELLSWORTH AFB  LGT RAIN  66  61  82 CALM      30.14F
PHILIP         CLOUDY    76  61  59 S12       30.10R
PINE RIDGE     LGT RAIN  65  60  84 W7        30.17F
WINNER         FAIR      77  62  59 SE9       30.12R
$$

SDZ004>011-016>023-039-040-281800-
NORTHEAST SOUTH DAKOTA

CITY           SKY/WX    TMP DP  RH WIND       PRES   REMARKS
ABERDEEN       CLOUDY    70  62  76 NE6       30.10S
WATERTOWN      MOSUNNY   74  57  55 NE9       30.08F
BROOKINGS      CLOUDY    72  60  66 NE12      30.08S
SISSETON         N/A     74  61  63 SE3       30.08F
$$

SDZ017-020-022-023-036>040-048>070-281800-
SOUTHEAST SOUTH DAKOTA

CITY           SKY/WX    TMP DP  RH WIND       PRES   REMARKS
SIOUX FALLS    PTSUNNY   69  63  81 NE8       30.07F
HURON          MOSUNNY   75  61  61 N9        30.08S
CHAMBERLAIN    SUNNY     80  60  51 CALM      30.10S
MITCHELL       CLOUDY    77  60  55 MISG      30.08S
YANKTON        MOSUNNY   75  57  53 N6        30.05S
$$

ABBREVIATIONS USED IN REMARKS
   TC - TEMPERATURE IN CELSIUS
  WCI - WIND CHILL INDEX
   HX - HEAT INDEX
  VSB - VISIBILITY





USA.gov is the U.S. government's official web portal to all federal, state and local government web resources and services.